Regional Weather Roundup
Issued by NWS Green Bay, WI

Home | Current Version | Previous Version | Text Only | Print | Product List | Glossary On
Versions: 1 2 3 4 5 6 7 8 9 10 11 12 13 14 15 16 17 18 19 20 21 22 23 24 25 26 27 28 29 30 31 32 33 34 35 36 37 38 39 40 41 42 43 44 45 46 47 48 49 50
000
ASUS43 KGRB 231911
RWRGRB

NORTH-CENTRAL AND NORTHEAST WISCONSIN REGIONAL WEATHER ROUNDUP
NATIONAL WEATHER SERVICE GREEN BAY WI
100 PM CST MON JAN 23 2017

WIZ005-009-010>012-018-019-232000-
NORTH CENTRAL WISCONSIN

CITY           SKY/WX    TMP DP  RH WIND       PRES   REMARKS
IRONWOOD       FOG       35  35 100 W5        29.76F VSB 1/4
MANITOWISH WTR CLOUDY    33  33 100 CALM      29.74F
ARBOR VITAE    CLOUDY    37  35  95 CALM      29.74F
EAGLE RIVER    CLOUDY    36  34  94 CALM      29.73F
LAND O LAKES   CLOUDY    37  34  92 CALM      29.75F
RHINELANDER    CLOUDY    37  34  89 CALM      29.74F
PHILLIPS       CLOUDY    34  34 100 CALM      29.75S FOG
ANTIGO         CLOUDY    34  33  95 CALM      29.74F
TOMAHAWK       CLOUDY    35  32  89 W3        29.76S
MERRILL        CLOUDY    35  35  99 W3          N/A
$$

WIZ013-073-232000-
NORTHEAST WISCONSIN

CITY           SKY/WX    TMP DP  RH WIND       PRES   REMARKS
IRON MOUNTAIN  CLOUDY    36  33  89 NW5       29.73F
MARINETTE      NOT AVBL
OCONTO         CLOUDY    37  34  87 NW5       29.76S
$$

WIZ017-030-035>037-045-232000-
CENTRAL WISCONSIN

CITY           SKY/WX    TMP DP  RH WIND       PRES   REMARKS
MEDFORD        FOG       33  33  99 W6        29.75F VSB 1/4
WAUSAU         CLOUDY    35  33  92 W6        29.75S
MOSINEE        CLOUDY    36  36 100 W3        29.77S
MARSHFIELD     FOG       34  33  96 NW7       29.76S VSB 1/4
WISC RAPIDS    CLOUDY    35  35 100 NW8       29.78F
STEVENS POINT  CLOUDY    36  33  92 W3        29.76F
WAUPACA        CLOUDY    40  35  81 CALM      29.77F
SHAWANO        CLOUDY    41  35  79 CALM      29.76F
CLINTONVILLE   CLOUDY    37  34  87 CALM      29.76F
WAUTOMA        CLOUDY    38  35  89 W9        29.78F
$$

WIZ038-039-048-051-232000-
FOX VALLEY

CITY           SKY/WX    TMP DP  RH WIND       PRES   REMARKS
NWS GREEN BAY  CLOUDY    39  36  89 NW5       29.76F
APPLETON       CLOUDY    37  37 100 VRB3      29.75F
OSHKOSH        CLOUDY    38  35  89 NW6       29.75F
FOND DU LAC    CLOUDY    39  35  86 NW6       29.76F
$$

WIZ022-050-052-232000-
EAST CENTRAL WISCONSIN

CITY           SKY/WX    TMP DP  RH WIND       PRES   REMARKS
EPHRAIM        FOG       34  34 100 N6        29.73F VSB 1/4
WASHINGTON ISL FOG       35  35 100 N5        29.74F VSB<1/4
STURGEON BAY   FOG       36  36 100 NW7       29.75F VSB 1/2
MANITOWOC      CLOUDY    39  37  92 MISG      29.76F
SHEBOYGAN      CLOUDY    41  37  86 N5        29.75S
$$

LMZ563-521-522-541>543-232000-
LAKESHORE

STATION/POSITION TIME  TEMP    WIND        PRES    VSBY  WAVE
                       AIR SEA DIR/SP/G                  HT/PER
                 (UTC) (F)     (DEG/KT/KT) (MB)    (MI)  (FT/S)
SHEBOYGAN LKSHOR 1900   39     350/  7/  8 1007.6F
KEWAUNEE LKSHORE 1848   38     310/  6/ 10 1007.0F
NORTHPORT PIER   1840   33     320/  3/  4 1007.5F
SISTER BAY LKSHO 1835   34     360/  8/  8   N/A
MENOMINEE LKSHOR 1848           50/  5/  6 1007.1S
$$




USA.gov is the U.S. government's official web portal to all federal, state and local government web resources and services.